{"data":{"norad_id":68388,"epoch":"2026-05-25T03:25:28.435008Z","epoch_age_seconds":66151,"freshness":"FRESH","line1":"1 68388U 26063J   26145.14269022  .00030847  00000+0  95335-3 0  9993","line2":"2 68388  97.2862 287.7318 0000171 111.2232 248.9029 15.33464018  9611","mean_motion":15.33464018,"eccentricity":1.71e-5,"inclination_deg":97.2862,"raan_deg":287.7318,"arg_perigee_deg":111.2232,"mean_anomaly_deg":248.9029,"bstar":0.00095335,"rev_number":961,"period_min":93.905040033355,"perigee_km":465.36956491183,"apogee_km":465.60361683863,"semimajor_km":6843.6235908752,"source":"CELESTRAK","updated_at":"2026-05-25T13:38:21.929779Z"}}